AKDT,Max TemperatureF,Mean TemperatureF,Min TemperatureF,Max Dew PointF,MeanDew PointF,Min DewpointF,Max Humidity, Mean Humidity, Min Humidity, Max Sea Level PressureIn, Mean Sea Level PressureIn, Min Sea Level PressureIn, Max VisibilityMiles, Mean VisibilityMiles, Min VisibilityMiles, Max Wind SpeedMPH, Mean Wind SpeedMPH, Max Gust SpeedMPH,PrecipitationIn, CloudCover, Events, WindDirDegrees
2012-8-1,70,59,48,51,47,43,83,60,39,29.72,29.64,29.54,10,10,10,8,4,,T,6,Rain,69
2012-8-2,66,59,51,49,46,44,77,62,39,29.83,29.66,29.54,10,10,10,10,3,,T,7,Rain,252
2012-8-3,60,54,47,52,46,43,87,74,59,30.04,29.96,29.86,10,10,9,14,6,22,0.02,7,Rain,226
2012-8-4,59,54,48,50,48,46,97,82,63,30.04,30.00,29.92,10,10,9,6,1,,T,6,Rain,356
2012-8-5,67,56,45,52,46,43,93,72,37,29.94,29.92,29.91,10,10,10,6,2,,T,5,Rain,253
2012-8-6,72,58,43,52,45,41,93,63,27,29.96,29.89,29.79,10,10,10,7,2,,0.00,4,,99
2012-8-7,57,55,52,53,50,47,93,86,77,29.95,29.86,29.80,10,10,9,9,2,,0.07,7,Rain,241
2012-8-8,63,56,48,51,48,45,97,78,43,29.98,29.96,29.93,10,8,1,5,2,,0.03,7,Fog-Rain,353
2012-8-9,69,56,43,47,43,41,90,64,28,29.99,29.96,29.95,10,10,10,8,2,,0.00,4,,255
2012-8-10,72,57,42,52,45,41,93,66,29,30.08,30.04,30.00,10,10,10,9,2,,0.00,3,,350
2012-8-11,74,59,44,53,47,42,93,63,28,30.10,30.07,30.03,10,10,10,7,2,,0.00,5,,16
2012-8-12,75,64,52,52,48,39,86,61,28,30.05,30.00,29.94,10,10,10,5,1,,0.00,5,,177
2012-8-13,75,62,49,54,47,41,90,58,21,30.02,30.00,29.96,10,10,10,6,2,,0.00,2,,61
2012-8-14,78,62,46,54,48,43,89,60,22,30.06,30.01,29.92,10,10,10,6,1,,0.00,3,,125
2012-8-15,77,63,48,50,45,40,90,55,18,29.98,29.93,29.87,10,10,10,9,3,,0.00,5,,210
2012-8-16,69,61,53,55,51,45,93,70,45,29.94,29.90,29.83,10,10,10,7,3,,0.12,6,Rain,178
2012-8-17,65,56,46,52,48,41,97,75,39,29.86,29.82,29.78,10,10,10,6,2,,0.01,6,Rain,195
2012-8-18,70,57,44,48,44,39,90,64,26,29.82,29.74,29.64,10,10,7,10,3,,T,5,,85
2012-8-19,71,61,50,47,43,37,86,57,18,29.74,29.70,29.67,10,9,4,12,3,18,0.00,6,,187
2012-8-20,67,58,49,47,45,42,86,63,32,29.92,29.81,29.75,10,10,10,12,2,,T,6,Rain,264
2012-8-21,60,52,44,47,43,40,89,69,40,30.10,30.06,29.94,10,10,10,9,6,,0.00,6,,248
2012-8-22,70,54,37,46,41,36,96,66,26,30.07,29.93,29.70,10,10,10,9,2,,0.00,3,,69
2012-8-23,72,57,41,45,42,39,89,56,29,29.77,29.67,29.62,10,10,10,14,4,22,0.00,5,,327
2012-8-24,63,54,45,48,46,43,93,71,40,29.86,29.80,29.73,10,8,3,9,2,,0.02,6,Rain,177
2012-8-25,59,54,48,49,48,46,97,83,60,29.96,29.90,29.83,10,9,6,12,5,18,0.25,7,Rain,217
2012-8-26,54,51,48,52,50,47,100,93,88,29.96,29.73,29.56,10,6,2,6,2,,0.82,8,Fog-Rain,100
2012-8-27,54,50,45,50,45,39,100,79,50,29.98,29.74,29.57,10,8,3,24,7,33,0.08,7,Rain,253
2012-8-28,58,49,40,45,38,34,86,67,35,30.13,30.09,29.99,10,10,10,13,6,18,0.00,5,,265
2012-8-29,61,51,40,46,39,35,93,65,36,30.10,29.96,29.80,10,10,10,7,3,,T,7,Rain,49
2012-8-30,72,57,42,48,45,42,97,63,29,29.80,29.66,29.57,10,10,10,18,2,26,T,6,Rain,308
2012-8-31,61,56,51,49,46,42,92,71,44,29.77,29.71,29.63,10,10,10,14,4,20,0.02,7,Rain,307